RH
2 1 6 14 18 21 28 33 42 57 57 32 29 54 40 23 43 61 23 22 23 30 33 36 39 39 42 42 31 24 14 14 15 15 16 19 25 30 46 57 62 73 73 75 76 72 71 77 88
1 7 14 18 17 18 27 34 40 58 37 33 28 28 35 25 25 17 25 24 27 27 27 25 20 13 12 12 12 13 14 14 15 14 14 16 22 21 21 26 33 35 48 52 37 33 26 26 29
13 16 20 17 16 21 27 37 58 44 41 38 35 29 21 25 22 25 25 23 23 18 14 13 12 12 14 16 17 16 15 15 15 16 16 16 15 17 21 23 23 23 22 20 19 18 17 17 20
20 19 18 18 20 33 35 48 53 42 44 40 49 30 23 25 27 27 24 20 16 13 12 13 14 15 18 21 21 20 22 22 20 22 24 26 25 23 20 18 18 21 23 25 26 28 27 25 23
19 22 21 21 28 34 42 52 57 50 57 38 31 25 21 23 23 23 22 18 15 13 14 16 19 21 22 24 23 24 22 15 9 11 18 24 26 10 6 9 16 22 24 25 24 19 19 22 27
20 24 20 22 30 40 44 41 45 41 40 24 26 14 25 25 25 25 19 15 15 14 21 23 18 18 24 24 25 20 8 6 11 16 20 20 6 5 7 8 12 16 14 11 6 8 12 20 22
18 18 18 21 27 28 28 20 37 35 38 36 17 37 26 27 25 22 15 15 20 27 26 22 22 30 33 26 13 8 3 4 5 7 9 8 8 10 13 12 8 7 6 5 5 7 9 11 9
13 14 15 16 15 15 16 18 15 26 27 17 19 33 27 26 26 13 13 24 32 35 27 28 37 25 13 8 6 5 6 5 5 8 12 15 17 21 22 23 25 24 21 20 19 15 11 10 11
11 12 12 13 13 16 14 16 14 15 24 16 21 38 23 18 21 26 28 34 41 28 25 35 19 12 14 13 12 8 5 6 6 14 22 24 23 23 23 24 25 26 27 27 27 26 25 23 22
14 12 14 13 15 15 15 16 16 21 24 20 18 14 9 7 12 13 18 20 18 21 30 16 15 24 27 29 29 27 23 18 17 19 23 26 28 28 28 28 29 30 31 31 31 31 30 28 28
13 14 12 12 12 16 15 15 11 18 21 22 24 13 10 5 4 8 11 16 12 15 16 21 31 33 34 36 36 35 33 32 33 34 37 37 37 37 37 37 36 36 35 35 34 35 36 36 37
10 11 13 6 8 11 18 15 17 19 17 16 21 21 22 22 13 9 11 46 62 29 29 33 34 36 40 41 40 37 37 38 39 40 41 42 41 40 41 43 44 44 44 43 42 42 42 42 42
18 19 19 20 20 16 16 17 20 14 15 18 20 22 23 25 25 24 25 67 64 32 37 39 40 42 43 44 43 45 44 44 43 44 47 45 43 40 38 35 36 41 45 46 47 47 46 44 44
21 22 23 24 23 20 21 20 20 23 23 17 19 20 22 24 26 27 26 30 34 40 43 42 42 43 43 46 47 50 51 50 52 54 54 49 47 49 48 42 38 36 39 44 46 48 50 51 50
21 25 26 24 26 22 21 23 24 24 26 26 20 21 22 22 24 27 29 32 36 38 37 39 41 42 46 49 47 48 52 50 56 59 60 57 45 43 41 43 42 37 35 35 38 40 41 42 43
25 25 22 25 25 24 25 22 27 25 26 26 27 21 23 23 24 26 29 31 32 35 37 39 42 48 53 51 50 49 50 52 61 65 62 54 55 53 51 51 46 45 42 37 36 36 36 36 37
21 16 21 28 26 27 27 27 32 22 21 25 26 26 23 24 25 26 27 30 32 34 36 39 45 55 55 53 51 50 52 56 61 68 62 53 55 58 59 51 48 49 42 39 37 37 37 36 35
19 19 21 23 25 21 29 30 21 20 19 28 27 24 23 26 26 27 30 30 32 34 34 39 48 47 53 53 53 50 47 60 67 64 59 61 66 66 64 56 41 38 40 40 40 40 42 41 41
14 24 26 27 17 20 31 35 26 23 22 24 26 25 25 28 28 32 34 33 33 35 42 49 48 48 52 54 56 56 63 65 70 72 72 77 70 68 61 58 48 44 42 41 42 43 44 46 48
25 29 29 32 24 24 39 34 26 26 28 27 27 24 22 27 30 33 35 35 37 41 52 55 56 53 57 55 62 66 70 74 77 80 82 83 84 87 85 64 50 46 37 31 28 28 30 32 36
33 35 43 41 40 28 39 36 34 26 26 28 27 24 24 31 35 36 38 44 50 54 56 59 61 62 63 66 69 72 75 76 80 88 90 87 88 81 58 55 50 36 28 26 24 22 19 19 21
37 33 32 32 41 27 33 25 39 31 30 32 32 30 34 37 41 45 54 55 58 60 62 68 69 68 69 70 73 76 77 80 82 84 87 88 89 75 66 47 34 31 28 29 27 22 14 11 11
50 35 33 34 45 42 41 30 42 39 40 44 40 38 39 44 48 56 58 59 60 64 70 71 70 70 72 76 81 80 83 88 91 84 82 78 68 64 44 41 36 31 26 20 18 17 17 18 18
39 34 38 48 54 42 49 41 40 44 51 50 41 42 46 49 56 60 61 61 63 68 71 73 79 82 83 92 89 92 96 74 66 60 68 72 74 41 40 47 30 22 16 14 14 14 14 14 16
52 48 38 49 47 42 46 42 56 55 48 46 44 47 53 60 62 60 62 65 68 72 79 82 84 92 92 90 92 77 70 74 72 76 76 71 49 50 44 42 33 23 14 13 14 14 18 26 36
46 55 53 50 46 40 51 37 51 54 53 51 51 58 62 61 60 64 68 70 72 77 79 81 83 86 88 72 59 66 74 73 76 82 77 71 61 50 42 20 13 9 11 16 26 51 53 72 79
57 60 48 58 57 68 44 53 51 57 62 58 61 62 58 58 57 57 64 72 77 80 87 82 79 67 58 61 59 59 60 63 73 79 78 62 48 34 18 10 11 20 34 61 78 88 97 100 100
57 53 57 56 71 43 26 34 33 62 69 64 65 60 65 61 62 69 78 86 91 78 69 66 64 66 73 66 58 70 79 86 78 58 37 20 10 10 11 22 46 78 89 98 98 98 96 94 94
67 66 60 58 64 51 49 30 48 62 55 55 59 65 65 59 62 70 82 80 69 63 61 59 60 67 71 65 76 60 38 28 24 23 19 13 17 33 54 68 84 91 91 95 97 94 96 96 94
61 69 66 56 54 68 75 49 50 46 49 56 70 80 67 68 97 80 80 80 74 70 69 63 65 74 64 47 42 48 44 27 21 14 15 42 60 72 85 86 90 95 100 97 95 96 97 97 96
Wind_Speed
8 10 18 19 6 10 14 11 13 13 9 14 11 7 5 5 5 3 13 14 14 15 14 14 12 7 4 4 3 1 1 1 3 5 8 9 10 13 14 15 14 15 17 18 20 20 22 22 23
11 19 20 13 11 17 14 12 12 10 15 13 12 10 7 4 6 12 16 14 16 16 16 14 11 9 9 6 3 1 3 5 7 10 12 12 12 13 16 17 17 17 17 18 18 19 20 21 22
21 19 12 11 12 16 17 13 15 15 13 12 11 10 6 6 8 15 15 15 17 15 13 11 9 7 4 2 1 3 5 8 10 11 13 13 14 15 16 17 18 17 18 18 19 21 22 22 23
21 19 17 14 16 14 15 15 13 13 12 14 8 3 6 8 12 15 17 17 14 12 9 7 4 2 2 4 5 6 7 10 12 12 11 10 11 12 14 17 18 18 18 19 20 22 23 22 23
19 16 17 18 17 15 14 13 11 8 9 8 5 4 6 11 16 18 16 13 11 9 6 2 2 6 8 8 9 10 11 10 10 10 9 8 8 9 11 13 14 14 15 16 17 18 18 19 19
14 15 19 19 17 14 13 13 9 7 6 4 5 4 11 13 13 13 12 10 7 6 3 3 7 9 8 7 8 7 7 5 5 5 5 5 6 8 9 10 9 9 10 11 13 14 14 14 14
14 14 16 19 17 13 11 11 8 6 5 2 6 8 13 13 13 12 10 7 5 4 4 5 7 5 6 6 6 7 1 2 5 4 3 5 9 9 11 10 9 9 10 11 12 12 12 13 12
19 13 18 16 12 12 10 7 6 5 5 5 8 6 11 10 9 9 8 5 6 5 5 5 4 5 4 6 6 5 3 3 5 6 7 9 11 12 12 13 13 13 14 14 15 16 17 17 17
15 12 12 12 10 10 10 7 3 6 7 5 6 8 9 9 10 10 9 9 9 7 5 4 3 3 5 6 6 5 3 5 6 8 9 11 13 16 17 17 17 18 18 18 18 19 20 21 21
10 9 9 11 9 9 7 7 4 7 6 5 5 6 6 6 8 9 9 9 7 7 7 4 1 6 7 8 7 6 6 7 10 11 12 13 16 17 19 20 22 23 24 24 24 24 24 25 26
12 9 10 9 10 10 8 5 6 7 7 7 7 7 7 7 8 9 10 10 9 8 5 4 5 6 7 8 8 8 7 7 8 10 12 13 15 16 18 20 23 24 26 27 28 28 28 29 29
13 11 8 9 9 8 7 8 5 8 7 12 12 9 8 6 7 8 9 9 9 7 6 4 4 4 8 11 12 12 11 9 9 10 12 15 16 17 18 20 22 23 25 26 27 28 29 31 31
12 12 12 9 8 7 9 8 7 8 11 12 11 8 7 5 6 6 7 11 10 7 6 2 1 3 7 8 8 10 10 11 11 12 14 16 16 17 19 22 24 25 26 26 26 26 26 28 29
12 9 6 5 4 5 7 6 7 4 5 8 9 7 5 5 5 5 6 9 8 7 5 3 4 6 7 8 9 12 12 14 13 15 17 18 18 20 22 24 26 27 28 29 28 27 27 27 27
10 6 4 3 8 6 4 3 4 4 3 3 11 10 9 9 6 5 7 8 8 7 6 7 8 10 11 12 13 16 19 22 20 20 20 21 22 21 21 22 23 25 27 27 28 29 29 29 31
8 5 5 2 4 4 4 7 5 8 12 13 9 15 14 12 10 10 8 6 4 7 9 11 12 14 13 15 18 22 23 23 21 22 22 23 23 25 25 25 25 27 27 27 27 27 28 29 29
4 4 3 3 4 3 4 4 9 17 14 16 18 16 17 16 15 13 9 7 8 10 12 13 14 16 16 19 20 21 23 23 23 23 24 24 25 27 28 27 25 29 29 30 30 30 33 33 34
3 2 1 2 5 7 5 6 12 11 7 10 14 16 18 18 18 15 13 12 12 12 11 13 15 19 20 19 19 20 21 22 22 24 26 29 30 33 35 34 31 31 31 30 32 34 36 39 38
2 1 2 4 7 2 3 3 5 4 8 12 11 12 14 18 16 15 13 13 12 11 11 13 15 16 18 18 20 23 25 26 27 27 29 32 34 36 38 38 36 35 38 37 36 37 38 38 39
3 3 2 4 4 5 3 2 2 3 7 10 8 9 8 10 12 12 11 12 12 13 13 12 13 16 17 21 24 27 29 30 32 35 35 37 40 42 45 43 39 39 39 38 36 37 40 43 42
6 2 4 5 8 4 2 3 3 5 7 7 4 4 7 9 9 9 10 11 14 15 16 17 17 18 21 24 27 31 35 37 38 39 40 41 43 47 44 43 44 41 37 39 40 42 45 48 48
4 6 11 9 4 5 8 6 3 6 5 5 5 7 8 8 7 7 10 14 15 18 18 16 19 23 26 28 31 34 38 40 42 45 47 49 51 48 43 40 40 42 44 45 45 46 47 49 51
4 11 10 6 5 4 4 6 4 6 4 4 8 9 8 7 8 11 14 16 18 18 18 20 23 27 29 32 35 39 40 44 50 54 54 54 48 44 39 40 42 44 43 46 47 48 51 54 57
8 9 3 2 3 5 2 4 6 5 3 2 10 11 11 12 12 14 17 18 20 21 21 22 25 29 31 37 39 42 44 49 52 50 49 48 46 39 42 42 41 46 48 50 50 53 55 58 57
8 3 3 2 3 1 3 5 3 5 8 9 11 12 13 13 15 19 20 20 23 25 25 27 29 35 42 43 46 51 51 51 49 49 48 48 44 46 42 49 54 53 54 55 59 59 57 54 51
8 7 3 3 2 4 4 4 5 9 9 11 12 12 14 18 19 17 19 23 26 28 29 33 37 39 43 48 47 45 46 47 47 48 48 48 48 45 54 54 55 54 54 54 52 47 46 41 40
4 4 4 2 4 3 2 2 7 10 8 12 12 16 19 17 20 23 24 26 29 32 36 37 42 44 43 44 47 47 46 45 45 47 47 44 48 54 55 54 53 50 46 42 39 34 34 38 39
2 2 2 3 2 4 4 10 10 9 8 17 19 19 21 24 23 22 23 26 28 32 37 38 40 43 44 44 44 44 45 45 44 42 48 52 54 54 53 47 42 37 33 29 34 35 34 31 31
2 1 0 0 2 3 4 8 7 5 12 13 17 24 30 29 28 27 24 26 32 35 38 42 43 42 44 40 37 38 38 42 44 47 51 53 50 45 39 34 30 29 26 31 37 39 34 29 29
5 4 3 3 2 5 5 14 10 3 16 21 23 28 27 30 23 29 30 35 39 42 40 42 45 39 33 31 33 40 43 46 48 51 50 43 38 34 31 29 27 26 34 39 36 36 33 31 30
Wind_Direction
181 152 141 137 126 138 132 128 125 126 116 121 116 110 139 144 172 169 161 158 146 131 130 134 134 129 127 138 122 86 326 274 255 270 277 269 262 262 265 264 264 263 261 266 273 276 279 283 277
151 142 141 134 144 144 131 135 133 139 140 124 114 107 111 124 155 155 157 148 128 125 124 127 138 144 143 136 119 222 270 286 294 277 270 267 261 262 263 267 268 270 270 271 279 283 284 284 282
140 141 126 133 137 123 126 133 136 140 133 124 127 116 108 123 144 140 137 135 133 132 138 142 152 144 124 85 0 303 289 293 291 290 291 288 285 281 280 283 283 283 283 284 283 280 279 280 282
135 130 126 138 128 123 127 133 132 139 136 137 132 64 99 151 137 135 137 139 145 143 145 144 144 161 265 298 291 282 285 295 307 295 285 279 281 288 290 284 278 276 274 274 277 280 282 284 283
133 126 134 128 117 117 128 133 129 133 145 142 128 130 135 141 137 143 150 152 152 147 146 161 267 290 296 296 298 305 315 314 306 298 293 287 288 295 297 296 291 281 278 279 281 284 288 289 287
140 136 139 129 124 129 134 139 141 150 158 167 151 137 154 154 153 155 158 164 174 175 190 286 288 290 293 298 302 309 321 341 352 336 316 304 310 307 308 310 312 304 298 296 297 291 285 286 288
144 138 127 128 133 130 134 139 137 147 154 154 145 152 161 172 171 174 171 168 188 198 249 277 287 286 299 311 321 326 356 14 5 355 322 290 296 294 297 293 291 287 286 290 294 296 291 286 287
150 130 133 136 138 139 145 139 138 139 175 147 136 173 172 174 184 186 189 211 229 247 276 267 275 309 335 337 340 337 278 291 313 317 309 302 298 298 299 300 296 291 288 285 286 286 285 283 282
155 133 133 137 142 153 151 141 122 159 164 149 146 153 164 171 181 197 212 229 242 249 241 233 261 357 28 20 10 1 311 286 292 299 301 300 298 294 291 289 287 286 286 286 285 284 283 283 282
152 150 145 149 143 153 158 147 130 137 159 165 154 161 171 180 183 192 197 208 217 209 209 230 135 57 44 35 17 355 330 307 299 299 302 302 301 300 296 294 291 290 290 289 287 284 283 283 285
142 154 143 149 154 151 154 150 119 146 153 154 149 137 129 148 148 167 174 177 182 192 180 156 103 70 49 29 12 357 343 329 324 326 325 320 313 303 297 294 292 290 288 288 287 287 284 282 281
142 125 132 139 136 150 155 144 131 160 159 163 151 140 120 116 140 163 172 181 183 164 152 149 111 64 25 17 15 15 5 359 357 347 338 331 322 315 308 300 295 292 290 289 288 287 285 285 284
133 131 123 123 117 139 137 143 140 137 161 162 154 147 133 126 129 149 162 181 184 166 169 170 34 11 5 4 18 14 2 339 323 323 325 324 317 311 307 305 301 297 293 292 292 291 289 287 284
148 146 140 140 148 141 150 160 115 154 165 189 171 177 178 174 153 157 161 166 168 181 199 244 290 311 324 324 348 356 344 334 318 317 319 322 316 312 314 312 307 303 301 302 301 301 300 298 293
153 146 115 217 203 201 171 203 168 211 237 200 205 211 212 215 206 193 185 182 192 212 240 258 272 285 288 294 304 343 336 329 319 314 312 312 318 319 324 326 319 315 312 308 304 302 302 301 299
143 154 196 136 145 199 207 160 217 232 265 244 226 216 217 227 223 221 215 215 235 260 265 263 267 274 281 288 296 307 314 314 309 306 314 315 314 320 321 320 322 317 311 307 304 304 304 302 297
180 178 166 200 245 254 254 218 263 267 270 237 231 227 220 223 232 236 240 246 258 271 272 268 263 270 277 280 292 301 307 306 310 311 312 321 324 322 320 319 316 313 309 306 302 299 297 297 297
181 197 230 240 271 266 281 279 279 283 228 205 215 213 217 226 231 233 235 249 266 266 260 264 261 270 272 281 291 300 308 311 311 314 317 320 319 320 318 317 316 312 304 299 294 291 290 291 293
202 265 282 286 282 285 262 309 279 266 179 182 196 213 226 234 233 229 242 254 255 239 259 267 268 273 273 279 290 298 302 306 305 307 310 309 313 312 312 308 306 306 303 300 296 293 289 283 285
348 307 307 299 259 316 297 229 208 132 167 184 204 218 224 213 213 226 237 237 255 281 296 293 282 273 277 284 289 291 295 296 298 299 303 304 302 301 302 303 303 302 301 301 300 295 292 289 285
310 262 316 287 298 273 201 169 172 169 140 137 150 179 186 179 190 208 235 265 289 299 306 306 287 277 282 286 290 298 296 294 292 293 294 293 295 299 300 302 303 302 299 296 295 293 288 286 285
312 289 310 301 275 235 191 174 149 169 170 171 180 188 184 189 216 248 286 302 300 300 306 301 282 276 280 286 290 294 295 292 290 291 293 297 296 299 297 299 300 298 296 296 295 292 289 285 283
298 320 315 298 224 217 210 251 147 147 152 175 203 206 214 230 249 275 293 299 298 291 284 279 273 279 286 289 291 291 294 297 298 300 299 298 298 301 298 297 298 298 298 297 291 289 287 283 279
333 336 328 80 158 212 197 289 157 205 204 161 212 215 225 241 266 294 304 297 287 283 280 280 283 284 286 294 292 293 294 298 300 301 300 299 300 295 292 298 300 299 296 294 288 281 279 277 276
358 344 235 213 205 53 199 283 91 187 201 206 208 219 241 271 301 306 302 295 291 288 287 289 288 292 297 292 296 304 304 303 302 303 303 302 298 294 298 301 301 294 290 286 283 282 283 282 280
20 47 39 322 330 316 287 229 185 213 223 223 224 245 270 296 307 303 298 292 288 287 289 289 296 301 301 301 300 302 302 303 304 302 299 296 294 296 297 293 294 294 292 289 290 292 290 286 281
344 56 42 60 359 268 255 255 268 235 241 244 258 290 309 310 311 307 296 286 287 291 296 301 298 298 301 307 309 306 304 303 302 299 298 295 291 293 295 298 299 297 294 292 292 292 291 287 279
83 57 3 8 332 301 297 281 281 223 238 263 282 303 314 312 310 302 294 290 295 300 302 307 311 310 310 313 312 309 309 307 305 301 299 301 301 301 302 304 301 294 293 298 291 285 290 293 290
277 260 179 209 214 276 298 306 270 255 285 302 310 297 306 307 301 299 297 299 309 313 317 316 314 312 310 313 312 313 313 312 312 307 303 303 306 307 306 303 298 297 294 290 284 301 306 299 293
227 235 239 274 253 237 281 279 280 307 311 308 303 298 303 305 304 300 299 306 311 316 318 317 320 317 315 315 315 314 311 307 306 305 307 311 311 311 309 306 305 302 300 297 296 299 297 290 288